Weather History for KCTB - February, 2014

Change the Weather History Date:

Wednesday, February 19, 2014

  Actual Average Record
Temperature  
Mean Temperature 28 °F 25 °F  
Max Temperature 35 °F 36 °F 62 °F (1916)
Min Temperature 20 °F 13 °F -30 °F (1949)
Degree Days  
Heating Degree Days 37 40  
Month to date heating degree days 995 788  
Since 1 July heating degree days 5703 5706  
Cooling Degree Days 0 0  
Month to date cooling degree days 0 0  
Year to date cooling degree days 0 0  
Moisture  
Dew Point 17 °F    
Average Humidity 63    
Maximum Humidity 85    
Minimum Humidity 41    
Precipitation  
Precipitation T in 0.01 in 0.11 in (1940)
Month to date precipitation 0.14 0.13  
Year to date precipitation 0.96 0.33  
Snow  
Snow 0.00 in - - ()
Snow Depth 0.00 in    
Sea Level Pressure  
Sea Level Pressure 29.61 in    
Wind  
Wind Speed 26 mph (West)    
Max Wind Speed 47 mph    
Max Gust Speed 58 mph    
Visibility 10 miles    
Events Snow    
T = Trace of Precipitation, MM = Missing Value Source: NWS Daily Summary

Daily Weather History Graph

Daily Weather History Graph

Search for Another Location

Airport or City:

Trip Planner

Search our weather history database for the weather conditions in past years. The results will help you decide how hot, cold, wet, or windy it might be!

Date:

Astronomy

Feb. 19, 2014 Rise Set
Actual Time 7:29 AM MST 5:57 PM MST
Civil Twilight 6:57 AM MST 6:29 PM MST
Nautical Twilight 6:21 AM MST 7:06 PM MST
Astronomical Twilight 5:44 AM MST 7:42 PM MST
Moon 11:22 PM MST (2/19) 9:12 AM MST (2/19)
Length of Visible Light 11h 31m
Length of Day
10h 27m
Waning Gibbous, 79% of the Moon is Illuminated
Feb 19
Waning Gibbous
Feb 22
Last Quarter
Mar 1
New
Mar 8
First Quarter
Mar 16
Full

Hourly Weather History & Observations

Time (MST) Temp. Windchill Dew Point Humidity Pressure Visibility Wind Dir Wind Speed Gust Speed Precip Events Conditions
12:56 AM 30.9 °F 21.7 °F 26.1 °F 82% 29.39 in 10.0 mi SSW 11.5 mph - N/A   Mostly Cloudy
1:56 AM 34.0 °F 20.8 °F 28.9 °F 82% 29.38 in 9.0 mi WSW 27.6 mph 36.8 mph 0.00 in Snow Light Snow
2:56 AM 32.0 °F 18.6 °F 28.0 °F 85% 29.42 in 10.0 mi West 25.3 mph 29.9 mph 0.00 in   Clear
3:56 AM 30.9 °F 15.7 °F 18.0 °F 59% 29.42 in 10.0 mi WSW 32.2 mph 43.7 mph N/A   Clear
4:56 AM 28.9 °F 12.8 °F 18.0 °F 64% 29.45 in 10.0 mi WSW 33.4 mph 40.3 mph N/A   Clear
5:56 AM 28.0 °F 11.8 °F 17.1 °F 63% 29.47 in 10.0 mi WSW 32.2 mph 47.2 mph N/A   Clear
6:56 AM 28.0 °F 12.5 °F 15.1 °F 58% 29.45 in 10.0 mi WSW 28.8 mph 42.6 mph N/A   Clear
7:56 AM 27.0 °F 10.5 °F 15.1 °F 61% 29.45 in 10.0 mi West 31.1 mph 42.6 mph N/A   Clear
8:56 AM 28.9 °F 11.7 °F 15.1 °F 56% 29.46 in 10.0 mi West 39.1 mph 48.3 mph N/A   Clear
9:56 AM 30.9 °F 14.1 °F 16.0 °F 54% 29.48 in 10.0 mi West 41.4 mph 52.9 mph N/A   Partly Cloudy
10:56 AM 30.0 °F 14.5 °F 15.1 °F 54% 29.52 in 10.0 mi West 32.2 mph 49.5 mph N/A   Overcast
11:56 AM 30.0 °F 13.8 °F 14.0 °F 51% 29.55 in 10.0 mi West 35.7 mph 41.4 mph N/A   Overcast
12:56 PM 30.9 °F 15.3 °F 14.0 °F 50% 29.58 in 10.0 mi West 34.5 mph 43.7 mph N/A   Overcast
1:56 PM 32.0 °F 17.0 °F 14.0 °F 48% 29.59 in 10.0 mi West 33.4 mph 44.9 mph N/A   Overcast
2:56 PM 33.1 °F 18.4 °F 12.9 °F 43% 29.62 in 10.0 mi West 33.4 mph 40.3 mph N/A   Mostly Cloudy
3:56 PM 30.9 °F 16.9 °F 14.0 °F 50% 29.68 in 10.0 mi West 26.5 mph 36.8 mph N/A   Overcast
4:56 PM 30.9 °F 18.4 °F 15.1 °F 52% 29.70 in 10.0 mi WNW 20.7 mph - N/A   Overcast
5:56 PM 30.0 °F 15.2 °F 12.0 °F 47% 29.73 in 10.0 mi WNW 28.8 mph 34.5 mph N/A   Overcast
6:56 PM 28.0 °F 14.6 °F 12.9 °F 53% 29.78 in 10.0 mi WNW 20.7 mph - N/A   Overcast
7:56 PM 28.0 °F 16.5 °F 12.0 °F 51% 29.82 in 10.0 mi WNW 15.0 mph - N/A   Overcast
8:56 PM 26.1 °F 14.5 °F 18.0 °F 71% 29.86 in 10.0 mi NNW 13.8 mph - N/A   Overcast
9:56 PM 21.9 °F 11.7 °F 18.0 °F 85% 29.89 in 10.0 mi West 9.2 mph - N/A   Mostly Cloudy
10:56 PM 21.0 °F 9.9 °F 17.1 °F 85% 29.92 in 10.0 mi NNW 10.4 mph - N/A   Clear
11:56 PM 19.9 °F 9.3 °F 16.0 °F 85% 29.94 in 10.0 mi NW 9.2 mph - N/A   Clear